WA2GTM Weather Reports


Display with metric or nautical units.
time (UTC)temp
F
wind
direction
speed
MPH
gust
MPH
rain 1hr
in
rain 24hr
in
rain mn
in
humidity
%
barometer
mb
20260507072556 43 217 2.0 6.0 0.00 0.00 0.00 56 1013.7
20260507072058 42 215 2.0 5.0 0.00 0.00 0.00 56 1013.8
20260507071557 42 212 1.0 5.0 0.00 0.00 0.00 56 1013.8
20260507071056 42 221 2.0 6.0 0.00 0.00 0.00 56 1013.9
20260507070556 42 223 3.0 7.0 0.00 0.00 0.00 56 1014.0
20260507070108 42 223 4.0 7.0 0.00 0.00 0.00 56 1014.1
20260507065555 42 223 4.0 7.0 0.00 0.00 0.00 56 1014.1
20260507065101 42 223 4.0 7.0 0.00 0.00 0.00 56 1014.3
20260507064602 42 224 4.0 7.0 0.00 0.00 0.00 56 1014.1
20260507064058 42 221 3.0 6.0 0.00 0.00 0.00 56 1014.2
20260507063557 41 219 3.0 6.0 0.00 0.00 0.00 56 1014.2
20260507063059 41 219 2.0 5.0 0.00 0.00 0.00 56 1014.2
20260507062556 41 219 2.0 6.0 0.00 0.00 0.00 56 1014.1
20260507062056 41 219 3.0 6.0 0.00 0.00 0.00 57 1014.2
20260507061555 41 219 2.0 6.0 0.00 0.00 0.00 57 1014.3
20260507061057 41 221 3.0 6.0 0.00 0.00 0.00 56 1014.3
20260507060600 41 223 3.0 5.0 0.00 0.00 0.00 56 1014.5
20260507060055 41 225 3.0 5.0 0.00 0.00 0.00 57 1014.5
20260507055556 41 229 3.0 5.0 0.00 0.00 0.00 58 1014.5
20260507055055 41 234 3.0 5.0 0.00 0.00 0.00 58 1014.7
20260507054555 41 243 2.0 4.0 0.00 0.00 0.00 59 1014.6
20260507054059 41 252 1.0 4.0 0.00 0.00 0.00 60 1014.4
20260507053556 41 316 1.0 3.0 0.00 0.00 0.00 61 1014.5
20260507053058 41 0 0.0 3.0 0.00 0.00 0.00 62 1014.3
20260507052558 41 316 0.0 3.0 0.00 0.00 0.00 62 1014.3
20260507052057 40 317 0.0 2.0 0.00 0.00 0.00 63 1014.5
20260507051607 41 0 0.0 2.0 0.00 0.00 0.00 63 1014.5
20260507051057 41 0 0.0 2.0 0.00 0.00 0.00 63 1014.7
20260507050556 41 317 0.0 1.0 0.00 0.00 0.00 64 1014.6
20260507050109 41 0 0.0 0.0 0.00 0.00 0.00 63 1014.7
20260507045556 41 0 0.0 1.0 0.00 0.00 0.00 63 1014.6
20260507045056 41 0 0.0 1.0 0.00 0.00 0.00 63 1014.7
20260507044600 41 0 0.0 1.0 0.00 0.00 0.00 63 1014.6
20260507044101 41 0 0.0 0.0 0.00 0.00 0.00 63 1014.7
20260507043556 41 0 0.0 0.0 0.00 0.00 0.00 63 1014.8
20260507043058 41 0 0.0 0.0 0.00 0.00 0.00 63 1015.0
20260507042555 41 0 0.0 1.0 0.00 0.00 0.00 62 1014.9
20260507042055 42 0 0.0 1.0 0.00 0.00 0.00 61 1015.0
20260507041607 42 0 0.0 2.0 0.00 0.00 0.00 60 1015.1
20260507041056 42 0 0.0 2.0 0.00 0.00 0.00 60 1015.1
20260507040600 42 317 0.0 2.0 0.00 0.00 0.00 58 1015.1
20260507040109 42 317 0.0 2.0 0.00 0.00 0.00 56 1015.2
20260507035601 42 0 0.0 1.0 0.00 0.00 0.00 56 1015.2
20260507035055 42 0 0.0 1.0 0.00 0.00 0.00 56 1015.1
20260507034602 43 0 0.0 2.0 0.00 0.00 0.00 56 1015.3
20260507034056 43 0 0.0 2.0 0.00 0.00 0.00 56 1015.2
20260507033556 43 317 0.0 2.0 0.00 0.00 0.00 55 1015.4
20260507033102 43 317 0.0 2.0 0.00 0.00 0.00 54 1015.4
20260507032557 43 0 0.0 2.0 0.00 0.00 0.00 53 1015.5
20260507032055 44 317 0.0 1.0 0.00 0.00 0.00 53 1015.5
20260507031602 44 0 0.0 0.0 0.00 0.00 0.00 52 1015.5
20260507031056 44 0 0.0 1.0 0.00 0.00 0.00 51 1015.5
20260507030556 45 0 0.0 1.0 0.00 0.00 0.00 50 1015.6
20260507030058 45 0 0.0 0.0 0.00 0.00 0.00 50 1015.5
20260507025558 45 0 0.0 0.0 0.00 0.00 0.00 49 1015.5
20260507025056 46 0 0.0 1.0 0.00 0.00 0.00 50 1015.4
20260507024603 46 0 0.0 1.0 0.00 0.00 0.00 51 1015.5
20260507024104 46 0 0.0 1.0 0.00 0.00 0.00 49 1015.5
20260507023557 47 0 0.0 1.0 0.00 0.00 0.00 48 1015.6
20260507023056 47 0 0.0 1.0 0.00 0.00 0.00 47 1015.4
20260507022556 48 0 0.0 1.0 0.00 0.00 0.00 48 1015.3
20260507022059 48 0 0.0 1.0 0.00 0.00 0.00 47 1015.4
20260507021605 48 0 0.0 1.0 0.00 0.00 0.00 45 1015.4
20260507021055 49 0 0.0 0.0 0.00 0.00 0.00 45 1015.5
20260507020556 49 0 0.0 0.0 0.00 0.00 0.00 44 1015.5
20260507020059 50 0 0.0 0.0 0.00 0.00 0.00 43 1015.4
20260507015556 50 0 0.0 0.0 0.00 0.00 0.00 41 1015.5
20260507015055 51 0 0.0 0.0 0.00 0.00 0.00 40 1015.4
20260507014600 51 0 0.0 0.0 0.00 0.00 0.00 38 1015.3
20260507014055 51 0 0.0 0.0 0.00 0.00 0.00 37 1015.4
20260507013556 52 0 0.0 0.0 0.00 0.00 0.00 38 1015.4
20260507013057 52 0 0.0 0.0 0.00 0.00 0.00 37 1015.3
20260507012559 53 0 0.0 1.0 0.00 0.00 0.00 35 1015.2
20260507012056 53 0 0.0 2.0 0.00 0.00 0.00 35 1015.4
20260507011604 53 317 0.0 3.0 0.00 0.00 0.00 35 1015.5
20260507011055 54 317 1.0 3.0 0.00 0.00 0.00 34 1015.6
20260507010557 54 317 1.0 3.0 0.00 0.00 0.00 33 1015.5
20260507005556 55 317 0.0 4.0 0.00 0.00 0.00 32 1015.5
20260507005055 55 317 1.0 6.0 0.00 0.00 0.00 32 1015.5
20260507004557 55 317 1.0 6.0 0.00 0.00 0.00 32 1015.4
20260507004057 55 316 2.0 6.0 0.00 0.00 0.00 31 1015.4
20260507003556 55 321 2.0 10.0 0.00 0.00 0.00 31 1015.5
20260507003058 55 319 2.0 12.0 0.00 0.00 0.00 31 1015.5
20260507002555 55 326 5.0 12.0 0.00 0.00 0.00 30 1015.7
20260507002056 56 342 5.0 11.0 0.00 0.00 0.00 30 1015.8
20260507001605 56 9 3.0 10.0 0.00 0.00 0.00 30 1015.7
20260507001057 56 351 3.0 11.0 0.00 0.00 0.00 30 1015.8
20260507000559 56 336 4.0 11.0 0.00 0.00 0.00 30 1015.9
20260507000059 56 332 5.0 10.0 0.00 0.00 0.00 30 1016.0
20260506235557 56 5 3.0 9.0 0.00 0.00 0.00 31 1016.0
20260506235056 56 324 4.0 12.0 0.00 0.00 0.00 30 1015.9
20260506234624 56 342 5.0 12.0 0.00 0.00 0.00 30 1015.8
20260506234100 56 5 4.0 12.0 0.00 0.00 0.00 29 1015.9
20260506233556 55 305 4.0 14.0 0.00 0.00 0.00 31 1015.9
20260506233100 55 315 6.0 14.0 0.00 0.00 0.00 30 1016.0
20260506232558 55 322 7.0 14.0 0.00 0.00 0.00 30 1015.9
20260506232059 55 296 3.0 8.0 0.00 0.00 0.00 31 1016.0
20260506231557 55 344 2.0 8.0 0.00 0.00 0.00 31 1016.1
20260506231059 55 21 2.0 11.0 0.00 0.00 0.00 31 1016.3
20260506230558 55 336 4.0 11.0 0.00 0.00 0.00 30 1016.3
20260506230059 56 355 3.0 10.0 0.00 0.00 0.00 31 1016.3
20260506225557 55 39 5.0 11.0 0.00 0.00 0.00 31 1016.3
20260506225059 55 360 5.0 11.0 0.00 0.00 0.00 31 1016.3
20260506224558 55 42 4.0 10.0 0.00 0.00 0.00 32 1016.3
20260506224055 55 5 4.0 13.0 0.00 0.00 0.00 32 1016.3
20260506223557 55 324 7.0 14.0 0.00 0.00 0.00 31 1016.4
20260506223100 55 338 5.0 18.0 0.00 0.00 0.00 31 1016.4
20260506222556 55 330 6.0 18.0 0.00 0.00 0.00 30 1016.4
20260506222056 55 331 7.0 18.0 0.00 0.00 0.00 31 1016.4
20260506221557 55 333 5.0 12.0 0.00 0.00 0.00 31 1016.3
20260506221055 55 281 4.0 12.0 0.00 0.00 0.00 32 1016.3
20260506220558 55 327 5.0 12.0 0.00 0.00 0.00 31 1016.5
20260506220058 56 350 4.0 11.0 0.00 0.00 0.00 31 1016.5
20260506215556 56 302 4.0 24.0 0.00 0.00 0.00 31 1016.5
20260506215058 55 341 4.0 24.0 0.00 0.00 0.00 32 1016.6
20260506214555 56 295 9.0 24.0 0.00 0.00 0.00 31 1016.6
20260506214056 56 337 3.0 14.0 0.00 0.00 0.00 31 1016.6
20260506213555 56 34 5.0 14.0 0.00 0.00 0.00 31 1016.5
20260506213101 56 331 6.0 15.0 0.00 0.00 0.00 31 1016.5
20260506212556 55 315 7.0 15.0 0.00 0.00 0.00 32 1016.5
20260506212056 55 313 5.0 17.0 0.00 0.00 0.00 31 1016.5
20260506211601 55 325 7.0 17.0 0.00 0.00 0.00 32 1016.6
20260506211056 55 309 6.0 16.0 0.00 0.00 0.00 31 1016.6
20260506210556 56 298 7.0 13.0 0.00 0.00 0.00 31 1016.6
20260506210057 56 344 5.0 19.0 0.00 0.00 0.00 32 1016.7
20260506205556 56 336 4.0 19.0 0.00 0.00 0.00 32 1017.0
20260506205055 56 306 10.0 19.0 0.00 0.00 0.00 33 1017.0
20260506204602 56 257 4.0 16.0 0.00 0.00 0.00 32 1017.0
20260506204055 55 308 6.0 16.0 0.00 0.00 0.00 32 1017.2
20260506203556 56 329 7.0 15.0 0.00 0.00 0.00 33 1017.2
20260506203103 56 13 4.0 15.0 0.00 0.00 0.00 31 1017.1
20260506202558 56 30 7.0 18.0 0.00 0.00 0.00 32 1017.3
20260506202057 56 346 10.0 18.0 0.00 0.00 0.00 31 1017.2
20260506201600 55 307 5.0 16.0 0.00 0.00 0.00 33 1017.1
20260506201054 55 320 6.0 14.0 0.00 0.00 0.00 33 1017.2
20260506200558 55 14 4.0 17.0 0.00 0.00 0.00 33 1017.2
20260506200111 54 330 4.0 17.0 0.00 0.00 0.00 32 1017.3
20260506195600 55 321 8.0 19.0 0.00 0.00 0.00 33 1017.5
20260506195056 55 360 10.0 19.0 0.00 0.00 0.00 33 1017.6
20260506194616 55 298 7.0 18.0 0.00 0.00 0.00 34 1017.5
20260506194056 55 315 7.0 15.0 0.00 0.00 0.00 33 1017.4
20260506193557 55 323 7.0 15.0 0.00 0.00 0.00 33 1017.4
20260506193057 55 325 5.0 14.0 0.00 0.00 0.00 33 1017.4
20260506192555 55 296 5.0 14.0 0.00 0.00 0.00 34 1017.4
20260506192100 55 304 8.0 16.0 0.00 0.00 0.00 34 1017.5
20260506191554 54 321 8.0 16.0 0.00 0.00 0.00 35 1017.5
20260506191057 54 320 7.0 15.0 0.00 0.00 0.00 34 1017.6
20260506190555 54 284 7.0 16.0 0.00 0.00 0.00 34 1017.3
20260506190101 54 249 6.0 16.0 0.00 0.00 0.00 36 1017.5
20260506185558 54 298 7.0 17.0 0.00 0.00 0.00 34 1017.5
20260506185058 53 303 7.0 17.0 0.00 0.00 0.00 36 1017.4
20260506184610 53 29 4.0 16.0 0.00 0.00 0.00 35 1017.4
20260506184055 53 18 7.0 15.0 0.00 0.00 0.00 34 1017.3
20260506183601 54 269 9.0 15.0 0.00 0.00 0.00 34 1017.6
20260506183104 53 303 5.0 23.0 0.00 0.00 0.00 36 1017.6
20260506182557 53 5 7.0 23.0 0.00 0.00 0.00 35 1017.8
20260506182100 52 339 11.0 23.0 0.00 0.00 0.00 35 1017.7
20260506181601 52 310 9.0 17.0 0.00 0.00 0.00 35 1017.8
20260506181057 53 9 8.0 17.0 0.00 0.00 0.00 35 1017.9
20260506180558 52 323 5.0 16.0 0.00 0.00 0.00 37 1017.7
20260506180056 53 348 8.0 16.0 0.00 0.00 0.00 35 1018.0
20260506175555 53 308 8.0 17.0 0.00 0.00 0.00 36 1018.0
20260506175055 52 5 5.0 17.0 0.00 0.00 0.00 37 1018.0
20260506174602 52 317 10.0 17.0 0.00 0.00 0.00 36 1018.2
20260506174055 52 323 8.0 15.0 0.00 0.00 0.00 37 1018.1
20260506173558 52 360 8.0 14.0 0.00 0.00 0.00 37 1018.3
20260506173112 52 323 6.0 12.0 0.00 0.00 0.00 36 1018.2
20260506172554 51 298 6.0 18.0 0.00 0.00 0.00 37 1018.1
20260506172056 50 315 10.0 18.0 0.00 0.00 0.00 37 1018.2
20260506171600 51 308 6.0 15.0 0.00 0.00 0.00 38 1018.3
20260506171056 50 344 5.0 15.0 0.00 0.00 0.00 39 1018.2
20260506170558 50 303 7.0 15.0 0.00 0.00 0.00 38 1018.3
20260506170057 50 277 7.0 13.0 0.00 0.00 0.00 38 1018.2
20260506165555 50 271 7.0 13.0 0.00 0.00 0.00 39 1018.2
20260506165055 50 346 7.0 13.0 0.00 0.00 0.00 39 1018.2
20260506164557 50 311 6.0 13.0 0.00 0.00 0.00 39 1018.1
20260506164055 50 355 6.0 14.0 0.00 0.00 0.00 39 1018.2
20260506163555 50 25 5.0 14.0 0.00 0.00 0.00 41 1018.0
20260506163055 50 9 6.0 12.0 0.00 0.00 0.00 40 1018.2
20260506162555 49 10 5.0 14.0 0.00 0.00 0.00 39 1018.1
20260506162101 50 23 6.0 14.0 0.00 0.00 0.00 38 1018.1
20260506161604 50 313 5.0 12.0 0.00 0.00 0.00 38 1018.1
20260506161055 50 306 3.0 13.0 0.00 0.00 0.00 41 1018.0
20260506160555 50 300 4.0 13.0 0.00 0.00 0.00 40 1018.0
20260506160057 50 308 6.0 13.0 0.00 0.00 0.00 40 1018.0
20260506155555 50 36 7.0 16.0 0.00 0.00 0.00 39 1017.9
20260506155057 50 18 5.0 16.0 0.00 0.00 0.00 40 1018.2
20260506154559 49 311 8.0 16.0 0.00 0.00 0.00 41 1018.0
20260506154058 49 302 8.0 15.0 0.00 0.00 0.00 42 1018.2
20260506153558 49 290 6.0 12.0 0.00 0.00 0.00 42 1018.1
20260506153058 49 327 5.0 12.0 0.00 0.00 0.00 41 1018.0
20260506152557 49 344 3.0 12.0 0.00 0.00 0.00 43 1018.0
20260506152059 49 41 6.0 12.0 0.00 0.00 0.00 42 1018.0
20260506151607 49 261 3.0 12.0 0.00 0.00 0.00 43 1018.0
20260506151057 49 32 3.0 12.0 0.00 0.00 0.00 45 1018.0
20260506150557 48 15 4.0 9.0 0.00 0.00 0.00 45 1017.8
20260506150106 48 296 5.0 9.0 0.00 0.00 0.00 44 1017.9
20260506145557 48 295 4.0 9.0 0.00 0.00 0.00 45 1017.9
20260506145058 48 290 4.0 13.0 0.00 0.00 0.00 46 1018.0
20260506144612 48 5 5.0 13.0 0.00 0.00 0.00 46 1018.0
20260506144057 47 319 5.0 8.0 0.00 0.00 0.00 46 1017.8
20260506143555 47 285 2.0 7.0 0.00 0.00 0.00 48 1017.9
20260506143105 46 294 1.0 7.0 0.00 0.00 0.00 48 1017.8
20260506142557 47 273 3.0 7.0 0.00 0.00 0.00 47 1018.0
20260506142056 47 329 1.0 6.0 0.00 0.00 0.00 48 1017.7
20260506141558 46 331 2.0 6.0 0.00 0.00 0.00 47 1017.8
20260506141057 46 311 3.0 8.0 0.00 0.00 0.00 48 1017.7
20260506140558 46 320 2.0 8.0 0.00 0.00 0.00 49 1017.7
20260506140106 46 13 2.0 8.0 0.00 0.00 0.00 49 1017.7
20260506135554 45 324 3.0 8.0 0.00 0.00 0.00 51 1017.6
20260506135057 45 319 3.0 6.0 0.00 0.00 0.00 50 1017.4
20260506134559 45 25 0.0 4.0 0.00 0.00 0.00 53 1017.2
20260506134054 45 25 2.0 8.0 0.00 0.00 0.00 51 1017.5
20260506133557 44 17 1.0 8.0 0.00 0.00 0.00 52 1017.4
20260506133057 44 22 2.0 8.0 0.00 0.00 0.00 51 1017.5
20260506132555 44 342 1.0 8.0 0.00 0.00 0.00 54 1017.5
20260506132056 44 21 2.0 5.0 0.00 0.00 0.00 54 1017.4
20260506131557 43 21 1.0 5.0 0.00 0.00 0.00 57 1017.3
20260506131058 43 11 2.0 5.0 0.00 0.00 0.00 58 1017.3
20260506130557 42 11 2.0 5.0 0.00 0.00 0.00 59 1017.4
20260506130133 41 10 2.0 5.0 0.00 0.00 0.00 60 1017.2
20260506125559 41 44 2.0 6.0 0.00 0.00 0.00 61 1017.3
20260506125057 40 44 2.0 6.0 0.00 0.00 0.00 61 1017.2
20260506124557 40 51 2.0 6.0 0.00 0.00 0.00 62 1017.3
20260506124057 39 15 1.0 5.0 0.00 0.00 0.00 63 1017.2
20260506123558 39 19 2.0 5.0 0.00 0.00 0.00 64 1017.1
20260506123055 39 355 1.0 5.0 0.00 0.00 0.00 65 1017.1
20260506122558 38 355 1.0 4.0 0.00 0.00 0.00 65 1017.0
20260506122058 38 5 1.0 3.0 0.00 0.00 0.00 65 1016.9
20260506121558 38 5 1.0 3.0 0.00 0.00 0.00 65 1016.8
20260506121055 38 0 1.0 3.0 0.00 0.00 0.00 66 1016.7
20260506120556 37 5 0.0 2.0 0.00 0.00 0.00 66 1016.7
20260506120100 37 0 0.0 2.0 0.00 0.00 0.00 66 1016.6
20260506115557 37 0 0.0 2.0 0.00 0.00 0.00 66 1016.5
20260506115057 37 0 0.0 2.0 0.00 0.00 0.00 65 1016.4
20260506114556 37 0 0.0 2.0 0.00 0.00 0.00 65 1016.2
20260506114058 37 0 0.0 2.0 0.00 0.00 0.00 65 1016.2
20260506113557 37 5 0.0 2.0 0.00 0.00 0.00 65 1016.3
20260506113106 37 0 0.0 2.0 0.00 0.00 0.00 65 1016.1
20260506112555 37 0 0.0 2.0 0.00 0.00 0.00 64 1016.1
20260506112054 37 0 0.0 3.0 0.00 0.00 0.00 63 1016.1
20260506111557 38 0 0.0 3.0 0.00 0.00 0.00 63 1016.1
20260506111054 38 5 0.0 3.0 0.00 0.00 0.00 63 1016.1
20260506110554 38 5 0.0 3.0 0.00 0.00 0.00 63 1016.0
20260506105554 38 5 1.0 2.0 0.00 0.00 0.00 62 1015.8
20260506105055 38 5 0.0 2.0 0.00 0.00 0.00 62 1015.9
20260506104615 39 5 0.0 2.0 0.00 0.00 0.00 61 1015.7
20260506104055 39 0 0.0 2.0 0.00 0.00 0.00 61 1015.6
20260506103558 39 5 0.0 2.0 0.00 0.00 0.00 60 1015.7
20260506103057 39 5 1.0 2.0 0.00 0.00 0.00 60 1015.6
20260506102555 39 5 0.0 3.0 0.00 0.00 0.00 60 1015.6
20260506102054 39 0 1.0 3.0 0.00 0.00 0.00 60 1015.4
20260506101603 39 5 0.0 2.0 0.00 0.00 0.00 60 1015.4
20260506101054 39 5 0.0 2.0 0.00 0.00 0.00 60 1015.5
20260506100557 39 5 0.0 3.0 0.00 0.00 0.00 60 1015.4
20260506100101 39 5 0.0 3.0 0.00 0.00 0.00 60 1015.5
20260506095559 39 5 1.0 3.0 0.00 0.00 0.00 60 1015.4
20260506095058 39 5 0.0 3.0 0.00 0.00 0.00 60 1015.5
20260506094601 40 5 1.0 3.0 0.00 0.00 0.00 59 1015.4
20260506094057 40 5 0.0 3.0 0.00 0.00 0.00 59 1015.2
20260506093557 40 5 0.0 3.0 0.00 0.00 0.00 59 1015.3
20260506093106 40 5 1.0 3.0 0.00 0.00 0.00 59 1015.3
20260506092557 40 5 0.0 3.0 0.00 0.00 0.00 58 1015.3
20260506092055 40 360 1.0 3.0 0.00 0.00 0.00 58 1015.3
20260506091559 40 360 1.0 3.0 0.00 0.00 0.00 58 1015.2
20260506091055 40 0 0.0 3.0 0.00 0.00 0.00 58 1015.1
20260506090602 40 0 1.0 3.0 0.00 0.00 0.00 58 1015.2
20260506085556 40 360 1.0 3.0 0.00 0.00 0.00 59 1015.1
20260506085056 40 360 0.0 4.0 0.00 0.00 0.00 60 1015.1
20260506084556 39 360 0.0 4.0 0.00 0.00 0.00 60 1015.1
20260506084055 39 360 0.0 3.0 0.00 0.00 0.00 60 1014.9
20260506083557 39 360 0.0 3.0 0.00 0.00 0.00 60 1014.7
20260506083055 39 360 0.0 2.0 0.00 0.00 0.00 60 1014.7
20260506082558 39 360 0.0 2.0 0.00 0.00 0.00 60 1014.8
20260506082100 39 0 0.0 2.0 0.00 0.00 0.00 60 1014.6
20260506081555 39 360 0.0 3.0 0.00 0.00 0.00 61 1014.7
20260506081054 39 360 0.0 3.0 0.00 0.00 0.00 61 1014.6
20260506080555 39 360 0.0 2.0 0.00 0.00 0.00 61 1014.6
20260506073105 38 0 0.0 1.0 0.00 0.00 0.00 59 1014.5